DW3072 Weather Reports


Display with metric or nautical units.
time (UTC)temp
F
wind
direction
speed
MPH
gust
MPH
rain 1hr
in
rain 24hr
in
rain mn
in
humidity
%
barometer
mb
20260831112041 66 309 0.0 0.0 0.00 0.01 0.00 96 1019.6
20260831110548 65 309 0.0 0.0 0.00 0.01 0.00 96 1019.2
20260831105053 65 309 0.0 0.0 0.00 0.01 0.00 97 1019.2
20260831103602 65 309 0.0 0.0 0.00 0.01 0.00 96 1018.9
20260831102050 65 309 0.0 0.0 0.00 0.01 0.00 96 1018.6
20260831100704 65 309 0.0 0.0 0.00 0.01 0.00 96 1018.8
20260831095050 66 309 0.0 0.0 0.00 0.01 0.00 96 1018.9
20260831093539 66 309 0.0 0.0 0.00 0.01 0.00 96 1018.8
20260831092032 66 309 0.0 0.0 0.00 0.01 0.00 96 1018.6
20260831090540 66 309 0.0 0.0 0.00 0.01 0.00 96 1018.4
20260831085104 66 309 0.0 0.0 0.00 0.01 0.00 96 1018.2
20260831083549 67 309 0.0 0.0 0.00 0.01 0.00 96 1018.3
20260831082104 67 309 0.0 0.0 0.00 0.01 0.00 96 1018.4
20260831080532 67 309 0.0 0.0 0.00 0.01 0.00 96 1018.3
20260831075036 67 309 0.0 0.0 0.00 0.01 0.00 96 1018.5
20260831073525 67 309 0.0 0.0 0.00 0.01 0.00 96 1018.5
20260831072034 67 309 0.0 0.0 0.00 0.01 0.00 96 1018.3
20260831070613 67 309 0.0 0.0 0.00 0.01 0.00 96 1018.4
20260831065052 67 309 0.0 0.0 0.00 0.01 0.00 96 1018.4
20260831063602 67 309 0.0 0.0 0.00 0.01 0.00 96 1018.6
20260831062028 67 309 0.0 0.0 0.00 0.01 0.00 96 1018.5
20260831060537 68 309 0.0 0.0 0.00 0.01 0.00 96 1018.6
20260831055040 68 309 0.0 0.0 0.00 0.01 0.00 96 1018.5
20260831053530 68 309 0.0 0.0 0.00 0.01 0.00 96 1018.7
20260831052040 68 309 0.0 0.0 0.00 0.01 0.00 96 1018.8
20260831050526 68 309 0.0 0.0 0.00 0.01 0.00 96 1018.7
20260831045029 68 309 0.0 0.0 0.00 0.01 0.00 96 1018.6
20260831043534 68 309 0.0 0.0 0.00 0.01 0.00 96 1018.8
20260831042039 68 309 0.0 0.0 0.00 0.01 0.00 96 1018.6
20260831040549 69 309 0.0 0.0 0.00 0.01 0.00 95 1018.8
20260831035040 69 309 0.0 0.0 0.00 0.01 0.01 95 1018.8
20260831033532 69 309 0.0 0.0 0.00 0.01 0.01 95 1018.6
20260831032044 69 309 0.0 0.0 0.00 0.01 0.01 95 1018.5
20260831030541 70 309 0.0 0.0 0.00 0.01 0.01 95 1018.6
20260831025037 70 309 0.0 0.0 0.00 0.01 0.01 95 1018.7
20260831023546 70 309 0.0 0.0 0.00 0.01 0.01 95 1018.9
20260831022055 70 309 0.0 0.0 0.00 0.01 0.01 95 1019.0
20260831020541 71 309 0.0 1.0 0.00 0.01 0.01 95 1018.9
20260831015036 71 309 0.0 1.0 0.01 0.01 0.01 94 1018.8
20260831013541 71 309 0.0 1.0 0.01 0.01 0.01 94 1018.8
20260831012029 71 309 0.0 0.0 0.01 0.01 0.01 94 1018.9
20260831010538 72 309 0.0 0.0 0.01 0.01 0.01 94 1018.5
20260831005040 72 309 0.0 0.0 0.00 0.00 0.00 93 1018.4
20260831003549 72 309 0.0 0.0 0.00 0.00 0.00 93 1018.2
20260831002053 72 309 0.0 0.0 0.00 0.00 0.00 92 1017.9
20260831000540 73 309 0.0 0.0 0.00 0.00 0.00 92 1017.7
20260830235045 73 309 0.0 0.0 0.00 0.00 0.00 92 1017.6
20260830233535 73 309 0.0 0.0 0.00 0.00 0.00 91 1017.4
20260830232026 74 309 0.0 0.0 0.00 0.00 0.00 91 1017.4
20260830230533 74 309 0.0 0.0 0.00 0.00 0.00 90 1017.4
20260830225037 75 309 0.0 0.0 0.00 0.00 0.00 89 1017.3
20260830223527 75 309 0.0 0.0 0.00 0.00 0.00 89 1017.4
20260830222037 76 309 0.0 0.0 0.00 0.00 0.00 88 1017.3
20260830220546 76 309 0.0 0.0 0.00 0.00 0.00 87 1017.1
20260830215029 77 309 0.0 1.0 0.00 0.00 0.00 87 1017.1
20260830213539 77 358 0.0 1.0 0.00 0.00 0.00 87 1017.2
20260830212049 77 321 0.0 0.0 0.00 0.00 0.00 87 1017.4
20260830210557 76 350 0.0 2.0 0.00 0.00 0.00 87 1017.3
20260830205041 76 2 0.0 1.0 0.00 0.00 0.00 86 1017.3
20260830203529 77 360 1.0 3.0 0.00 0.00 0.00 84 1017.2
20260830202034 77 323 0.0 3.0 0.00 0.00 0.00 83 1017.6
20260830200544 78 300 0.0 4.0 0.00 0.00 0.00 82 1017.5
20260830195106 78 317 1.0 5.0 0.00 0.00 0.00 82 1017.7
20260830193536 78 294 3.0 6.0 0.00 0.00 0.00 81 1017.8
20260830192049 77 38 1.0 5.0 0.00 0.00 0.00 81 1017.9
20260830190534 77 292 2.0 5.0 0.00 0.00 0.00 82 1017.9
20260830185038 77 308 1.0 6.0 0.00 0.00 0.00 84 1018.4
20260830183525 76 71 1.0 7.0 0.00 0.00 0.00 85 1018.7
20260830182105 74 337 1.0 7.0 0.00 0.00 0.00 87 1018.8
20260830180551 73 333 3.0 6.0 0.00 0.00 0.00 89 1019.3
20260830175030 72 235 1.0 3.0 0.00 0.00 0.00 88 1019.4
20260830173540 72 23 1.0 4.0 0.00 0.00 0.00 88 1019.7
20260830172031 71 306 0.0 3.0 0.00 0.00 0.00 89 1019.8
20260830170542 71 291 1.0 4.0 0.00 0.00 0.00 88 1019.9
20260830165043 71 338 2.0 5.0 0.00 0.00 0.00 87 1020.2
20260830163532 71 98 2.0 6.0 0.00 0.00 0.00 87 1020.0
20260830162038 71 330 2.0 7.0 0.00 0.00 0.00 86 1020.1
20260830160547 71 306 2.0 7.0 0.00 0.00 0.00 85 1020.3
20260830155027 70 39 3.0 8.0 0.00 0.00 0.00 84 1020.4
20260830153537 69 295 1.0 4.0 0.00 0.00 0.00 85 1020.8
20260830152026 69 67 0.0 3.0 0.00 0.00 0.00 86 1021.0
20260830150538 68 34 0.0 0.0 0.00 0.00 0.00 88 1021.0
20260830145042 68 285 0.0 0.0 0.00 0.00 0.00 89 1020.8
20260830143553 67 285 0.0 0.0 0.00 0.00 0.00 89 1021.0
20260830142041 67 285 0.0 2.0 0.00 0.00 0.00 89 1021.1
20260830140552 66 110 0.0 0.0 0.00 0.00 0.00 88 1021.0
20260830135054 66 110 0.0 0.0 0.00 0.00 0.00 89 1021.0
20260830133543 66 110 0.0 1.0 0.00 0.00 0.00 89 1021.2
20260830132055 66 110 0.0 1.0 0.00 0.00 0.00 90 1021.4
20260830130539 66 110 0.0 0.0 0.00 0.00 0.00 91 1021.4
20260830125102 65 110 0.0 0.0 0.00 0.00 0.00 93 1021.5
20260830123527 62 110 0.0 0.0 0.00 0.00 0.00 96 1021.7
20260830122100 60 110 0.0 0.0 0.00 0.00 0.00 96 1021.8
20260830120547 59 110 0.0 0.0 0.00 0.00 0.00 96 1022.0
20260830115028 59 110 0.0 0.0 0.00 0.00 0.00 96 1022.0
20260830113538 58 110 0.0 0.0 0.00 0.00 0.00 96 1022.0